^^
Station Historical Data
Daily Summary for March 10, 2018 Units:  Metric    English   Both
« Previous Day
Next Day »
Daily Weekly Monthly Yearly Custom
  High: Low: Average:
Temperature: -17.8 °C 14.5 °C 21.8 °C
Dew Point: -17.8 °C 1.6 °C 7.2 °C
Humidity: Humidity% 17% 43%
Wind Speed: 0km/h 0km/h 3.1km/h
Wind Gust: 0km/h - -
Wind- - SW
Pressure: 0 hPa 1003.9 hPa -
Precipitation: 0 mm    
Historical Graphs
 
 
Tabular Data for March 10, 2018
Time Temperature Dew Point Pressure Wind Wind Speed Wind Gust Humidity Rainfall Rate (Hourly) solar Conditions
-17.8 °C -17.8 °C 0 hPa Calm     Humidity% 0 mm SolarRadiationWatts/m^2 W/m2 Conditions
00:00 19.1 °C 9.8 °C 1006.3 hPa Calm     55% 0 mm 0.0 W/m2
00:05 18.9 °C 9.7 °C 1006.3 hPa Calm     55% 0 mm 0.0 W/m2
00:10 18.8 °C 9.8 °C 1006.3 hPa Calm     56% 0 mm 0.0 W/m2
00:16 18.7 °C 9.7 °C 1006.3 hPa Calm     56% 0 mm 0.0 W/m2
00:21 18.6 °C 9.9 °C 1006.3 hPa Calm     57% 0 mm 0.0 W/m2
00:26 18.5 °C 10.1 °C 1006.3 hPa Calm     58% 0 mm 0.0 W/m2
00:31 18.4 °C 10 °C 1006.3 hPa Calm     58% 0 mm 0.0 W/m2
00:36 18.3 °C 10.1 °C 1006.3 hPa Calm     59% 0 mm 0.0 W/m2
00:41 18.2 °C 10.1 °C 1006.3 hPa Calm     59% 0 mm 0.0 W/m2
00:47 18.1 °C 9.7 °C 1006.3 hPa Calm   4.8 km/h 58% 0 mm 0.0 W/m2
00:52 18.2 °C 10.1 °C 1006.3 hPa Calm   3.2 km/h 59% 0 mm 0.0 W/m2
00:57 18.2 °C 9.8 °C 1006.3 hPa Calm   1.6 km/h 58% 0 mm 0.0 W/m2
01:03 18.2 °C 10.1 °C 1006.3 hPa Calm     59% 0 mm 0.0 W/m2
01:08 18.2 °C 9.8 °C 1006.3 hPa Calm     58% 0 mm 0.0 W/m2
01:13 18.1 °C 10 °C 1006.3 hPa Calm     59% 0 mm 0.0 W/m2
01:19 18.1 °C 10.2 °C 1006 hPa Calm     60% 0 mm 0.0 W/m2
01:24 17.9 °C 10 °C 1006 hPa Calm     60% 0 mm 0.0 W/m2
01:29 17.8 °C 10.2 °C 1006 hPa Calm     61% 0 mm 0.0 W/m2
01:35 17.7 °C 10.3 °C 1006 hPa Calm     62% 0 mm 0.0 W/m2
01:40 17.6 °C 10.5 °C 1006 hPa Calm     63% 0 mm 0.0 W/m2
01:45 17.5 °C 10.4 °C 1006 hPa Calm     63% 0 mm 0.0 W/m2
01:51 17.3 °C 10.4 °C 1006 hPa Calm     64% 0 mm 0.0 W/m2
01:56 17.2 °C 10.3 °C 1006 hPa Calm   1.6 km/h 64% 0 mm 0.0 W/m2
02:01 17.1 °C 10.5 °C 1005.6 hPa Calm   1.6 km/h 65% 0 mm 0.0 W/m2
02:07 16.9 °C 10.5 °C 1005.6 hPa Calm   3.2 km/h 66% 0 mm 0.0 W/m2
02:12 16.8 °C 10.4 °C 1005.6 hPa Calm     66% 0 mm 0.0 W/m2
02:17 16.7 °C 10.3 °C 1005.6 hPa Calm   1.6 km/h 66% 0 mm 0.0 W/m2
02:23 16.6 °C 10.4 °C 1005.6 hPa Calm     67% 0 mm 0.0 W/m2
02:28 16.5 °C 10.4 °C 1005.6 hPa Calm   1.6 km/h 67% 0 mm 0.0 W/m2
02:33 16.4 °C 10.3 °C 1005.6 hPa Calm     67% 0 mm 0.0 W/m2
02:39 16.3 °C 10.2 °C 1005.6 hPa Calm   1.6 km/h 67% 0 mm 0.0 W/m2
02:44 16.2 °C 10.3 °C 1005.6 hPa Calm   1.6 km/h 68% 0 mm 0.0 W/m2
02:49 16.2 °C 10.3 °C 1005.6 hPa Calm   3.2 km/h 68% 0 mm 0.0 W/m2
02:54 16.2 °C 10.5 °C 1005.6 hPa Calm   3.2 km/h 69% 0 mm 0.0 W/m2
02:59 16.1 °C 10.4 °C 1005.6 hPa Calm   1.6 km/h 69% 0 mm 0.0 W/m2
03:05 16.1 °C 10.6 °C 1005.6 hPa Calm   1.6 km/h 70% 0 mm 0.0 W/m2
03:10 16 °C 10.5 °C 1005.6 hPa Calm     70% 0 mm 0.0 W/m2
03:15 15.9 °C 10.6 °C 1005.6 hPa Calm     71% 0 mm 0.0 W/m2
03:20 15.9 °C 10.9 °C 1005.6 hPa Calm     72% 0 mm 0.0 W/m2
03:25 15.8 °C 11 °C 1005.6 hPa Calm     73% 0 mm 0.0 W/m2
03:30 15.7 °C 10.7 °C 1005.6 hPa Calm     72% 0 mm 0.0 W/m2
03:35 15.7 °C 10.9 °C 1005.6 hPa Calm   1.6 km/h 73% 0 mm 0.0 W/m2
03:40 15.6 °C 10.8 °C 1005.6 hPa Calm     73% 0 mm 0.0 W/m2
03:45 15.5 °C 10.7 °C 1005.6 hPa Calm     73% 0 mm 0.0 W/m2
03:50 15.4 °C 10.8 °C 1005.3 hPa Calm     74% 0 mm 0.0 W/m2
03:55 15.3 °C 10.7 °C 1005.3 hPa Calm     74% 0 mm 0.0 W/m2
04:01 15.2 °C 10.8 °C 1005.3 hPa Calm     75% 0 mm 0.0 W/m2
04:06 15.2 °C 10.6 °C 1005.3 hPa Calm     74% 0 mm 0.0 W/m2
04:12 15.1 °C 10.5 °C 1005.3 hPa Calm   3.2 km/h 74% 0 mm 0.0 W/m2
04:17 15.1 °C 10.5 °C 1005.3 hPa Calm     74% 0 mm 0.0 W/m2
04:22 14.9 °C 10.3 °C 1005.3 hPa Calm   3.2 km/h 74% 0 mm 0.0 W/m2
04:27 14.9 °C 10.3 °C 1005.3 hPa Calm   1.6 km/h 74% 0 mm 0.0 W/m2
04:32 14.8 °C 10.2 °C 1005.3 hPa SE 3.2 km/h 3.2 km/h 74% 0 mm 0.0 W/m2
04:37 14.8 °C 10.4 °C 1005 hPa Calm   1.6 km/h 75% 0 mm 0.0 W/m2
04:43 14.7 °C 10.1 °C 1005 hPa Calm     74% 0 mm 0.0 W/m2
04:48 14.7 °C 10.3 °C 1005 hPa Calm   3.2 km/h 75% 0 mm 0.0 W/m2
04:53 14.7 °C 10.3 °C 1005 hPa Calm   1.6 km/h 75% 0 mm 0.0 W/m2
04:58 14.7 °C 10.3 °C 1005 hPa SE 1.4 km/h 1.6 km/h 75% 0 mm 0.0 W/m2
05:03 14.7 °C 10.3 °C 1005 hPa SE 1.4 km/h 1.6 km/h 75% 0 mm 0.0 W/m2
05:08 14.7 °C 10.3 °C 1005 hPa Calm   1.6 km/h 75% 0 mm 0.0 W/m2
05:13 14.7 °C 10.3 °C 1005 hPa Calm   3.2 km/h 75% 0 mm 0.0 W/m2
05:18 14.6 °C 10 °C 1005 hPa Calm   4.8 km/h 74% 0 mm 0.0 W/m2
05:24 14.7 °C 9.9 °C 1005 hPa Calm     73% 0 mm 0.0 W/m2
05:29 14.6 °C 9.8 °C 1005 hPa Calm     73% 0 mm 0.0 W/m2
05:34 14.6 °C 9.8 °C 1005.3 hPa Calm     73% 0 mm 0.0 W/m2
05:40 14.5 °C 9.7 °C 1005.3 hPa Calm     73% 0 mm 0.0 W/m2
05:45 14.5 °C 9.7 °C 1005.3 hPa Calm   3.2 km/h 73% 0 mm 0.0 W/m2
05:50 14.5 °C 9.5 °C 1005.3 hPa Calm     72% 0 mm 0.0 W/m2
05:55 14.6 °C 9.6 °C 1005.3 hPa Calm     72% 0 mm 0.0 W/m2
06:00 14.6 °C 9.6 °C 1005.3 hPa Calm     72% 0 mm 0.0 W/m2
06:05 14.6 °C 9.4 °C 1005.3 hPa SE 1.4 km/h 1.6 km/h 71% 0 mm 0.0 W/m2
06:10 14.7 °C 9.5 °C 1005.3 hPa Calm   4.8 km/h 71% 0 mm 0.0 W/m2
06:15 14.7 °C 9.3 °C 1005.3 hPa Calm   4.8 km/h 70% 0 mm 0.0 W/m2
06:21 14.7 °C 9.3 °C 1005.6 hPa Calm   1.6 km/h 70% 0 mm 0.0 W/m2
06:26 14.8 °C 9.4 °C 1005.6 hPa Calm   1.6 km/h 70% 0 mm 0.0 W/m2
06:31 14.8 °C 9 °C 1005.6 hPa SE 1.4 km/h 3.2 km/h 68% 0 mm 0.0 W/m2
06:36 14.8 °C 9.2 °C 1005.6 hPa East 3.2 km/h 6.4 km/h 69% 0 mm 0.0 W/m2
06:41 14.8 °C 9.4 °C 1005.6 hPa East 4.7 km/h 6.4 km/h 70% 0 mm 0.0 W/m2
06:46 14.8 °C 9.4 °C 1006 hPa Calm   6.4 km/h 70% 0 mm 0.0 W/m2
06:51 14.7 °C 9.3 °C 1006 hPa Calm   4.8 km/h 70% 0 mm 0.0 W/m2
06:56 14.7 °C 9.1 °C 1006 hPa ESE 1.4 km/h 4.8 km/h 69% 0 mm 0.0 W/m2
07:01 14.7 °C 8.6 °C 1006 hPa East 4.7 km/h 4.8 km/h 67% 0 mm 7.0 W/m2
07:06 14.7 °C 8.4 °C 1006 hPa ENE 3.2 km/h 6.4 km/h 66% 0 mm 12.0 W/m2
07:12 14.8 °C 8.3 °C 1006 hPa ENE 1.4 km/h 3.2 km/h 65% 0 mm 16.0 W/m2
07:18 14.9 °C 7.9 °C 1006 hPa ENE 1.4 km/h 1.6 km/h 63% 0 mm 23.0 W/m2
07:23 15 °C 7.5 °C 1006.3 hPa East 1.4 km/h 6.4 km/h 61% 0 mm 25.0 W/m2
07:28 15.2 °C 7.7 °C 1006.3 hPa ENE 4.7 km/h 4.8 km/h 61% 0 mm 25.0 W/m2
07:33 15.3 °C 8.1 °C 1006.3 hPa ESE 6.4 km/h 9.7 km/h 62% 0 mm 26.0 W/m2
07:38 15.5 °C 8.5 °C 1006.3 hPa East 3.2 km/h 4.8 km/h 63% 0 mm 26.0 W/m2
07:43 15.6 °C 8.6 °C 1006.3 hPa ESE 1.4 km/h 8 km/h 63% 0 mm 30.0 W/m2
07:48 15.8 °C 8.5 °C 1006.3 hPa Calm   1.6 km/h 62% 0 mm 30.0 W/m2
07:53 16 °C 9 °C 1006.3 hPa Calm     63% 0 mm 33.0 W/m2
07:59 16.3 °C 8.8 °C 1006.3 hPa Calm   3.2 km/h 61% 0 mm 32.0 W/m2
08:04 16.6 °C 9 °C 1006.3 hPa Calm   4.8 km/h 61% 0 mm 28.0 W/m2
08:09 16.8 °C 9 °C 1006.3 hPa NE 6.4 km/h 6.4 km/h 60% 0 mm 26.0 W/m2
08:14 17.2 °C 8.3 °C 1006.7 hPa ENE 1.4 km/h 8 km/h 56% 0 mm 26.0 W/m2
08:19 17.6 °C 8.7 °C 1006.7 hPa NE 4.7 km/h 8 km/h 56% 0 mm 26.0 W/m2
08:24 17.9 °C 8.7 °C 1006.7 hPa ENE 4.7 km/h 9.7 km/h 55% 0 mm 26.0 W/m2
08:29 18.3 °C 8.8 °C 1006.7 hPa ENE 3.2 km/h 6.4 km/h 54% 0 mm 26.0 W/m2
08:34 18.7 °C 8.1 °C 1006.7 hPa NE 1.4 km/h 8 km/h 50% 0 mm 28.0 W/m2
08:40 19.1 °C 8.4 °C 1006.7 hPa ENE 4.7 km/h 8 km/h 50% 0 mm 28.0 W/m2
08:45 19.5 °C 8.2 °C 1006.7 hPa Calm   6.4 km/h 48% 0 mm 28.0 W/m2
08:50 19.8 °C 8.2 °C 1006.7 hPa Calm   8 km/h 47% 0 mm 30.0 W/m2
08:55 20.2 °C 8.2 °C 1006.7 hPa Calm   8 km/h 46% 0 mm 30.0 W/m2
09:00 20.4 °C 7.7 °C 1006.7 hPa NE 3.2 km/h 3.2 km/h 44% 0 mm 30.0 W/m2
09:05 20.7 °C 8.3 °C 1006.7 hPa Calm   3.2 km/h 45% 0 mm 32.0 W/m2
09:10 20.9 °C 7.9 °C 1006.7 hPa Calm   4.8 km/h 43% 0 mm 32.0 W/m2
09:15 21.2 °C 8.5 °C 1006.7 hPa Calm   1.6 km/h 44% 0 mm 33.0 W/m2
09:20 21.4 °C 8.3 °C 1006.7 hPa Calm   1.6 km/h 43% 0 mm 35.0 W/m2
09:25 21.7 °C 8.6 °C 1006.7 hPa Calm   1.6 km/h 43% 0 mm 44.0 W/m2
09:31 21.9 °C 7.7 °C 1006.7 hPa NNW 1.4 km/h 4.8 km/h 40% 0 mm 46.0 W/m2
09:36 22.1 °C 8.2 °C 1007 hPa Calm   1.6 km/h 41% 0 mm 47.0 W/m2
09:41 22.2 °C 8.3 °C 1007 hPa Calm     41% 0 mm 116.0 W/m2
09:46 22.4 °C 7.8 °C 1007 hPa Calm   6.4 km/h 39% 0 mm 652.0 W/m2
09:51 22.6 °C 7.9 °C 1007 hPa WSW 1.4 km/h 1.6 km/h 39% 0 mm 671.0 W/m2
09:56 22.9 °C 8.2 °C 1007 hPa West 4.7 km/h 4.8 km/h 39% 0 mm 687.0 W/m2
10:01 23.2 °C 8.1 °C 1006.7 hPa West 3.2 km/h 3.2 km/h 38% 0 mm 703.0 W/m2
10:06 23.7 °C 8.1 °C 1007 hPa NNW 1.4 km/h 4.8 km/h 37% 0 mm 721.0 W/m2
10:12 24.1 °C 7.3 °C 1006.7 hPa Calm     34% 0 mm 735.0 W/m2
10:17 24.4 °C 8.4 °C 1006.7 hPa WNW 7.9 km/h 9.7 km/h 36% 0 mm 747.0 W/m2
10:22 24.6 °C 8.5 °C 1006.7 hPa WNW 1.4 km/h 3.2 km/h 36% 0 mm 763.0 W/m2
10:27 24.9 °C 8.4 °C 1006.7 hPa Calm   8 km/h 35% 0 mm 780.0 W/m2
10:32 25.2 °C 8.6 °C 1006.7 hPa WSW 4.7 km/h 4.8 km/h 35% 0 mm 796.0 W/m2
10:37 25.2 °C 8.2 °C 1006.7 hPa NNW 3.2 km/h 8 km/h 34% 0 mm 807.0 W/m2
10:42 25.4 °C 8.4 °C 1006.7 hPa SW 1.4 km/h 4.8 km/h 34% 0 mm 824.0 W/m2
10:47 25.6 °C 7.7 °C 1006.7 hPa Calm   3.2 km/h 32% 0 mm 830.0 W/m2
10:52 25.8 °C 8.3 °C 1006.7 hPa Calm   1.6 km/h 33% 0 mm 846.0 W/m2
10:57 26.1 °C 7.6 °C 1006.3 hPa NW 3.2 km/h 11.3 km/h 31% 0 mm 861.0 W/m2
11:03 26.4 °C 7.9 °C 1006.7 hPa Calm   1.6 km/h 31% 0 mm 872.0 W/m2
11:08 26.7 °C 7.2 °C 1006.3 hPa SW 4.7 km/h 8 km/h 29% 0 mm 884.0 W/m2
11:13 26.9 °C 7.9 °C 1006.3 hPa WNW 4.7 km/h 9.7 km/h 30% 0 mm 898.0 W/m2
11:18 26.9 °C 7.4 °C 1006.3 hPa WNW 3.2 km/h 11.3 km/h 29% 0 mm 905.0 W/m2
11:23 27.1 °C 8 °C 1006.3 hPa WSW 4.7 km/h 4.8 km/h 30% 0 mm 918.0 W/m2
11:28 27.2 °C 7.6 °C 1006.3 hPa NNW 7.9 km/h 8 km/h 29% 0 mm 925.0 W/m2
11:33 27.5 °C 7.4 °C 1006.3 hPa NW 1.4 km/h 11.3 km/h 28% 0 mm 935.0 W/m2
11:38 27.6 °C 7.4 °C 1006.3 hPa WNW 7.9 km/h 14.5 km/h 28% 0 mm 942.0 W/m2
11:43 27.6 °C 7.4 °C 1006 hPa WSW 1.4 km/h 3.2 km/h 28% 0 mm 949.0 W/m2
11:48 27.7 °C 7.5 °C 1006 hPa Calm   3.2 km/h 28% 0 mm 958.0 W/m2
11:54 28.2 °C 8 °C 1006 hPa NW 4.7 km/h 6.4 km/h 28% 0 mm 963.0 W/m2
11:59 28.3 °C 7.5 °C 1006 hPa North 4.7 km/h 6.4 km/h 27% 0 mm 970.0 W/m2
12:04 28.4 °C 8.1 °C 1005.6 hPa WNW 3.2 km/h 3.2 km/h 28% 0 mm 976.0 W/m2
12:09 28.7 °C 7.9 °C 1005.6 hPa WSW 11.1 km/h 22.5 km/h 27% 0 mm 981.0 W/m2
12:14 28.7 °C 7.3 °C 1005.6 hPa South 13 km/h 16.1 km/h 26% 0 mm 983.0 W/m2
12:19 28.6 °C 7.2 °C 1005.6 hPa West 4.7 km/h 9.7 km/h 26% 0 mm 983.0 W/m2
12:24 28.4 °C 7 °C 1005.6 hPa NW 3.2 km/h 11.3 km/h 26% 0 mm 986.0 W/m2
12:29 28.3 °C 7 °C 1005.6 hPa West 3.2 km/h 12.9 km/h 26% 0 mm 991.0 W/m2
12:34 28.2 °C 7.4 °C 1005.3 hPa WNW 13 km/h 14.5 km/h 27% 0 mm 998.0 W/m2
12:39 28.3 °C 7.5 °C 1005.6 hPa West 4.7 km/h 19.3 km/h 27% 0 mm 1014.0 W/m2
12:44 28.4 °C 7 °C 1005.3 hPa WNW 7.9 km/h 16.1 km/h 26% 0 mm 1021.0 W/m2
12:50 28.6 °C 6.6 °C 1005.3 hPa NW 1.4 km/h 14.5 km/h 25% 0 mm 1013.0 W/m2
12:55 28.9 °C 6.3 °C 1005.3 hPa NNW 9.7 km/h 11.3 km/h 24% 0 mm 1021.0 W/m2
13:00 29.2 °C 7.7 °C 1005.3 hPa WSW 7.9 km/h 12.9 km/h 26% 0 mm 1028.0 W/m2
13:05 29.2 °C 7.2 °C 1005 hPa WSW 4.7 km/h 16.1 km/h 25% 0 mm 1076.0 W/m2
13:10 28.9 °C 7.5 °C 1005 hPa Calm   8 km/h 26% 0 mm 1067.0 W/m2
13:15 28.9 °C 6.9 °C 1005 hPa WSW 1.4 km/h 11.3 km/h 25% 0 mm 1107.0 W/m2
13:20 29.1 °C 7.1 °C 1005 hPa Calm   9.7 km/h 25% 0 mm 1129.0 W/m2
13:25 29.5 °C 7.4 °C 1005 hPa WSW 7.9 km/h 8 km/h 25% 0 mm 304.0 W/m2
13:30 29.4 °C 6.7 °C 1005 hPa NNE 3.2 km/h 8 km/h 24% 0 mm 200.0 W/m2
13:36 29.2 °C 7.2 °C 1004.6 hPa SW 3.2 km/h 9.7 km/h 25% 0 mm 1114.0 W/m2
13:41 29.1 °C 7.1 °C 1004.6 hPa WNW 6.4 km/h 12.9 km/h 25% 0 mm 1009.0 W/m2
13:46 28.9 °C 6.9 °C 1004.6 hPa NNW 11.1 km/h 24.1 km/h 25% 0 mm 1025.0 W/m2
13:51 29.2 °C 6.6 °C 1004.6 hPa WSW 4.7 km/h 11.3 km/h 24% 0 mm 1041.0 W/m2
13:56 29.4 °C 6.7 °C 1004.6 hPa SSW 1.4 km/h 6.4 km/h 24% 0 mm 1088.0 W/m2
14:01 29.4 °C 6.7 °C 1004.6 hPa WSW 19.5 km/h 19.5 km/h 24% 0 mm 1062.0 W/m2
14:06 29.3 °C 6 °C 1004.6 hPa West 14.3 km/h 19.3 km/h 23% 0 mm 1079.0 W/m2
14:11 29.2 °C 6.6 °C 1004.3 hPa West 16.3 km/h 16.3 km/h 24% 0 mm 1039.0 W/m2
14:16 29.1 °C 6.5 °C 1004.6 hPa WSW 7.9 km/h 8 km/h 24% 0 mm 211.0 W/m2
14:21 28.7 °C 5.5 °C 1004.3 hPa WSW 4.7 km/h 14.5 km/h 23% 0 mm 257.0 W/m2
14:26 28.2 °C 5.7 °C 1004.3 hPa Calm   12.9 km/h 24% 0 mm 213.0 W/m2
14:32 28.2 °C 6.9 °C 1004.3 hPa Calm   14.5 km/h 26% 0 mm 1048.0 W/m2
14:37 28.6 °C 6.1 °C 1004.3 hPa WNW 6.4 km/h 12.9 km/h 24% 0 mm 1072.0 W/m2
14:42 28.5 °C 4.1 °C 1003.9 hPa South 7.9 km/h 14.5 km/h 21% 0 mm 237.0 W/m2
14:47 28.6 °C 4.1 °C 1003.9 hPa SW 13 km/h 19.3 km/h 21% 0 mm 1048.0 W/m2
14:52 28.7 °C 4.2 °C 1003.9 hPa SW 4.7 km/h 27.4 km/h 21% 0 mm 962.0 W/m2
14:57 28.9 °C 3.7 °C 1003.9 hPa WSW 3.2 km/h 16.1 km/h 20% 0 mm 144.0 W/m2
15:02 28.6 °C 3.4 °C 1003.9 hPa SSW 9.7 km/h 14.5 km/h 20% 0 mm 911.0 W/m2
15:07 28.5 °C 4.1 °C 1003.9 hPa WSW 6.4 km/h 11.3 km/h 21% 0 mm 158.0 W/m2
15:13 28.5 °C 4.1 °C 1003.9 hPa West 4.7 km/h 12.9 km/h 21% 0 mm 912.0 W/m2
15:18 28.9 °C 3.7 °C 1003.9 hPa WSW 4.7 km/h 11.3 km/h 20% 0 mm 877.0 W/m2
15:23 29.1 °C 3.1 °C 1003.9 hPa WSW 7.9 km/h 17.7 km/h 19% 0 mm 812.0 W/m2
15:28 29.1 °C 3.9 °C 1003.9 hPa WSW 6.4 km/h 16.1 km/h 20% 0 mm 795.0 W/m2
15:33 29.3 °C 4.7 °C 1003.9 hPa WSW 7.9 km/h 24.1 km/h 21% 0 mm 782.0 W/m2
15:38 29.4 °C 4.8 °C 1003.9 hPa West 3.2 km/h 14.5 km/h 21% 0 mm 766.0 W/m2
15:43 29.6 °C 5 °C 1003.9 hPa WSW 6.4 km/h 17.7 km/h 21% 0 mm 749.0 W/m2
15:48 29.6 °C 5 °C 1003.9 hPa WSW 7.9 km/h 14.5 km/h 21% 0 mm 731.0 W/m2
15:53 29.5 °C 4.2 °C 1003.9 hPa WSW 4.7 km/h 12.9 km/h 20% 0 mm 717.0 W/m2
15:59 29.6 °C 5 °C 1003.9 hPa SE 4.7 km/h 19.3 km/h 21% 0 mm 698.0 W/m2
16:04 29.7 °C 5 °C 1003.9 hPa West 3.2 km/h 16.1 km/h 21% 0 mm 686.0 W/m2
16:09 29.6 °C 5 °C 1003.9 hPa West 6.4 km/h 20.9 km/h 21% 0 mm 693.0 W/m2
16:14 29.3 °C 4.7 °C 1003.9 hPa WSW 3.2 km/h 14.5 km/h 21% 0 mm 684.0 W/m2
16:19 29.1 °C 4.5 °C 1003.9 hPa South 11.1 km/h 22.5 km/h 21% 0 mm 657.0 W/m2
16:24 28.9 °C 4.4 °C 1003.9 hPa SW 13 km/h 16.1 km/h 21% 0 mm 642.0 W/m2
16:29 28.7 °C 3.5 °C 1003.9 hPa West 7.9 km/h 17.7 km/h 20% 0 mm 659.0 W/m2
16:34 28.8 °C 2.9 °C 1003.9 hPa West 9.7 km/h 14.5 km/h 19% 0 mm 636.0 W/m2
16:39 28.8 °C 2.9 °C 1003.9 hPa West 6.4 km/h 22.5 km/h 19% 0 mm 527.0 W/m2
16:45 28.9 °C 3.7 °C 1003.9 hPa SW 1.4 km/h 3.2 km/h 20% 0 mm 554.0 W/m2
16:50 29.1 °C 1.6 °C 1003.9 hPa WSW 4.7 km/h 19.3 km/h 17% 0 mm 536.0 W/m2
16:55 29.1 °C 3.1 °C 1003.9 hPa WSW 20.9 km/h 20.9 km/h 19% 0 mm 508.0 W/m2
17:00 29.1 °C 3.1 °C 1003.9 hPa West 1.4 km/h 16.1 km/h 19% 0 mm 485.0 W/m2
17:05 29.1 °C 3.1 °C 1003.9 hPa WSW 7.9 km/h 17.7 km/h 19% 0 mm 464.0 W/m2
17:10 29 °C 3.8 °C 1003.9 hPa West 7.9 km/h 12.9 km/h 20% 0 mm 448.0 W/m2
17:15 29 °C 3 °C 1003.9 hPa SW 3.2 km/h 14.5 km/h 19% 0 mm 318.0 W/m2
17:20 28.8 °C 2.9 °C 1003.9 hPa SSW 6.4 km/h 12.9 km/h 19% 0 mm 417.0 W/m2
17:25 28.8 °C 3.6 °C 1003.9 hPa West 13 km/h 14.5 km/h 20% 0 mm 376.0 W/m2
17:31 28.9 °C 3.7 °C 1003.9 hPa West 4.7 km/h 11.3 km/h 20% 0 mm 394.0 W/m2
17:37 29.1 °C 3.1 °C 1003.9 hPa WSW 4.7 km/h 12.9 km/h 19% 0 mm 374.0 W/m2
17:42 29.2 °C 3.2 °C 1003.9 hPa West 13 km/h 20.9 km/h 19% 0 mm 332.0 W/m2
17:47 29.1 °C 3.1 °C 1003.9 hPa West 11.1 km/h 19.3 km/h 19% 0 mm 309.0 W/m2
17:52 28.9 °C 3.7 °C 1003.9 hPa WNW 9.7 km/h 11.3 km/h 20% 0 mm 274.0 W/m2
17:57 28.6 °C 4.1 °C 1003.9 hPa West 7.9 km/h 9.7 km/h 21% 0 mm 60.0 W/m2
18:02 28.3 °C 3.9 °C 1003.9 hPa WSW 4.7 km/h 12.9 km/h 21% 0 mm 244.0 W/m2
18:07 28.2 °C 4.5 °C 1003.9 hPa West 4.7 km/h 16.1 km/h 22% 0 mm 207.0 W/m2
18:13 28.1 °C 5 °C 1003.9 hPa NW 6.4 km/h 12.9 km/h 23% 0 mm 192.0 W/m2
18:18 27.7 °C 4.7 °C 1003.9 hPa WSW 7.9 km/h 12.9 km/h 23% 0 mm 160.0 W/m2
18:24 27.6 °C 4.6 °C 1003.9 hPa SE 3.2 km/h 14.5 km/h 23% 0 mm 137.0 W/m2
18:29 27.4 °C 4.4 °C 1003.9 hPa WNW 4.7 km/h 20.9 km/h 23% 0 mm 111.0 W/m2
18:34 27.1 °C 4.8 °C 1004.3 hPa West 7.9 km/h 12.9 km/h 24% 0 mm 88.0 W/m2
18:39 26.9 °C 4.6 °C 1004.3 hPa WNW 6.4 km/h 14.5 km/h 24% 0 mm 69.0 W/m2
18:44 26.8 °C 4.5 °C 1004.3 hPa WSW 4.7 km/h 12.9 km/h 24% 0 mm 39.0 W/m2
18:49 26.5 °C 4.9 °C 1004.3 hPa West 4.7 km/h 12.9 km/h 25% 0 mm 21.0 W/m2
18:54 26.2 °C 4.6 °C 1004.3 hPa NNW 9.7 km/h 11.3 km/h 25% 0 mm 14.0 W/m2
18:59 25.8 °C 4.8 °C 1004.6 hPa SSW 7.9 km/h 19.3 km/h 26% 0 mm 11.0 W/m2
19:04 25.6 °C 5.2 °C 1004.6 hPa WSW 7.9 km/h 12.9 km/h 27% 0 mm 7.0 W/m2
19:09 25.2 °C 4.9 °C 1004.6 hPa WSW 11.1 km/h 16.1 km/h 27% 0 mm 5.0 W/m2
19:15 24.9 °C 5.1 °C 1005 hPa WSW 11.1 km/h 12.9 km/h 28% 0 mm 0.0 W/m2
19:20 24.8 °C 5.6 °C 1005 hPa WSW 13 km/h 13 km/h 29% 0 mm 0.0 W/m2
19:25 24.6 °C 5.9 °C 1005 hPa WSW 3.2 km/h 12.9 km/h 30% 0 mm 0.0 W/m2
19:30 24.4 °C 5.7 °C 1005.3 hPa WSW 6.4 km/h 14.5 km/h 30% 0 mm 0.0 W/m2
19:35 24.2 °C 6 °C 1005.3 hPa West 13 km/h 13 km/h 31% 0 mm 0.0 W/m2
19:40 24.1 °C 5.9 °C 1005.3 hPa WSW 7.9 km/h 12.9 km/h 31% 0 mm 0.0 W/m2
19:45 23.9 °C 5.7 °C 1005.3 hPa WSW 11.1 km/h 14.5 km/h 31% 0 mm 0.0 W/m2
19:50 23.8 °C 5.7 °C 1005.6 hPa WSW 6.4 km/h 12.9 km/h 31% 0 mm 0.0 W/m2
19:56 23.6 °C 5.9 °C 1005.6 hPa SSW 3.2 km/h 12.9 km/h 32% 0 mm 0.0 W/m2
20:02 23.4 °C 5.3 °C 1005.6 hPa WSW 3.2 km/h 11.3 km/h 31% 0 mm 0.0 W/m2
20:07 23.4 °C 5.3 °C 1006 hPa SW 4.7 km/h 9.7 km/h 31% 0 mm 0.0 W/m2
20:12 23.2 °C 5.6 °C 1006 hPa SSW 3.2 km/h 4.8 km/h 32% 0 mm 0.0 W/m2
20:17 23.1 °C 5.5 °C 1006 hPa WSW 4.7 km/h 9.7 km/h 32% 0 mm 0.0 W/m2
20:22 23 °C 5.4 °C 1006 hPa West 4.7 km/h 9.7 km/h 32% 0 mm 0.0 W/m2
20:27 22.9 °C 4.9 °C 1006.3 hPa SW 6.4 km/h 11.3 km/h 31% 0 mm 0.0 W/m2
20:32 22.8 °C 4.3 °C 1006.3 hPa Calm   12.9 km/h 30% 0 mm 0.0 W/m2
20:37 22.7 °C 4.7 °C 1006.3 hPa West 4.7 km/h 12.9 km/h 31% 0 mm 0.0 W/m2
20:42 22.6 °C 4.6 °C 1006.3 hPa WSW 3.2 km/h 6.4 km/h 31% 0 mm 0.0 W/m2
20:48 22.4 °C 4.4 °C 1006.3 hPa Calm   3.2 km/h 31% 0 mm 0.0 W/m2
20:53 22.3 °C 4.4 °C 1006.3 hPa WSW 4.7 km/h 8 km/h 31% 0 mm 0.0 W/m2
20:58 22.2 °C 4.7 °C 1006.3 hPa Calm   3.2 km/h 32% 0 mm 0.0 W/m2
21:03 22.1 °C 4.6 °C 1006.7 hPa West 1.4 km/h 4.8 km/h 32% 0 mm 0.0 W/m2
21:08 21.9 °C 4.9 °C 1006.7 hPa Calm   4.8 km/h 33% 0 mm 0.0 W/m2
21:13 21.7 °C 4.7 °C 1006.7 hPa Calm   9.7 km/h 33% 0 mm 0.0 W/m2
21:18 21.6 °C 4.6 °C 1006.7 hPa Calm   1.6 km/h 33% 0 mm 0.0 W/m2
21:24 21.4 °C 4.9 °C 1007 hPa Calm     34% 0 mm 0.0 W/m2
21:29 21.2 °C 5.1 °C 1007 hPa Calm     35% 0 mm 0.0 W/m2
21:35 21.1 °C 5 °C 1007 hPa Calm   1.6 km/h 35% 0 mm 0.0 W/m2
21:40 21 °C 5 °C 1007 hPa Calm     35% 0 mm 0.0 W/m2
21:45 20.8 °C 5.2 °C 1007 hPa Calm     36% 0 mm 0.0 W/m2
21:50 20.7 °C 5.5 °C 1007.3 hPa Calm   1.6 km/h 37% 0 mm 0.0 W/m2
21:55 20.6 °C 5 °C 1007.3 hPa Calm     36% 0 mm 0.0 W/m2
22:00 20.3 °C 5.5 °C 1007.3 hPa Calm   1.6 km/h 38% 0 mm 0.0 W/m2
22:05 20.2 °C 5 °C 1007.3 hPa Calm     37% 0 mm 0.0 W/m2
22:10 20.1 °C 5.3 °C 1007.3 hPa Calm   1.6 km/h 38% 0 mm 0.0 W/m2
22:15 19.9 °C 5.5 °C 1007.3 hPa Calm     39% 0 mm 0.0 W/m2
22:21 19.8 °C 5.8 °C 1007.7 hPa Calm     40% 0 mm 0.0 W/m2
22:26 19.6 °C 5.6 °C 1007.7 hPa Calm   3.2 km/h 40% 0 mm 0.0 W/m2
22:32 19.3 °C 6.4 °C 1007.7 hPa Calm   3.2 km/h 43% 0 mm 0.0 W/m2
22:37 19.2 °C 6 °C 1007.7 hPa Calm   1.6 km/h 42% 0 mm 0.0 W/m2
22:42 18.9 °C 6 °C 1007.7 hPa Calm     43% 0 mm 0.0 W/m2
22:47 18.8 °C 6 °C 1007.7 hPa Calm     43% 0 mm 0.0 W/m2
22:52 18.7 °C 6.2 °C 1007.7 hPa Calm     44% 0 mm 0.0 W/m2
22:57 18.6 °C 6.8 °C 1007.7 hPa Calm   3.2 km/h 46% 0 mm 0.0 W/m2
23:03 18.4 °C 6.9 °C 1007.7 hPa Calm   1.6 km/h 47% 0 mm 0.0 W/m2
23:08 18.2 °C 7.3 °C 1007.7 hPa Calm   3.2 km/h 49% 0 mm 0.0 W/m2
23:13 18.1 °C 7.2 °C 1007.7 hPa Calm   1.6 km/h 49% 0 mm 0.0 W/m2
23:18 17.9 °C 7 °C 1007.7 hPa Calm     49% 0 mm 0.0 W/m2
23:23 17.8 °C 6.9 °C 1007.7 hPa Calm   1.6 km/h 49% 0 mm 0.0 W/m2
23:28 17.6 °C 6.5 °C 1007.7 hPa Calm   1.6 km/h 48% 0 mm 0.0 W/m2
23:33 17.5 °C 6.1 °C 1007.7 hPa Calm   1.6 km/h 47% 0 mm 0.0 W/m2
23:38 17.4 °C 6.3 °C 1007.7 hPa Calm   1.6 km/h 48% 0 mm 0.0 W/m2
23:44 17.3 °C 7.1 °C 1008 hPa Calm   1.6 km/h 51% 0 mm 0.0 W/m2
23:49 17.3 °C 6.8 °C 1007.7 hPa Calm     50% 0 mm 0.0 W/m2
23:54 17.2 °C 7 °C 1007.7 hPa Calm     51% 0 mm 0.0 W/m2
23:59 17.2 °C 7 °C 1007.7 hPa Calm     51% 0 mm 0.0 W/m2
Olympia, Windhoek, Namibia
Compliments of Weather Underground - 3.25 mb